This demonstration page uses our WeatherBlox Daily Observations layout. Learn more.

Left ArrowRight Arrow

40.92945, -100.16068

Hourly Observations for February 2, 2016

Temp ( °F °C ) Dew Point ( °F °C ) Humidity (%) Winds ( mph kmh ) Pressure ( in mb ) Visibility ( mi km ) Precip ( " mm )
12:15 am 00:15 Windy with Snow Likely 32 0.1 31 -0.7 94 94 NE 23 37 29.83 1010 1.25 2.011675 0.01 0.254
12:35 am 00:35 Windy with Snow Likely 32 0.2 31 -0.8 93 93 NE 23 37 29.8 1009 1.75 2.816345 0.02 0.508
12:55 am 00:55 Windy with Snow Likely 32 0.2 30 -0.9 92 92 NE 25 41 29.8 1009 2.5 4.02335 0.02 0.508
1:15 am 01:15 Windy with Snow Likely 32 0.2 30 -1 92 92 ENE 28 44 29.8 1009 3 4.82802 0.01 0.254
1:35 am 01:35 Windy with Snow Likely 32 0.2 30 -1 92 92 ENE 25 41 29.8 1009 1.5 2.41401 0.01 0.254
1:55 am 01:55 Cloudy with Snow 32 0.1 30 -1 92 92 NE 24 39 29.77 1008 0.75 1.207005 0.01 0.254
2:15 am 02:15 Cloudy with Snow 32 0.1 30 -1 92 92 NE 25 41 29.77 1008 0.75 1.207005 N/A
2:35 am 02:35 Windy with Snow Likely 32 0.2 30 -1 92 92 NE 26 43 29.74 1007 1.5 2.41401 0.01 0.254
2:55 am 02:55 Windy with Snow Likely 32 0.1 30 -1 92 92 NE 25 41 29.68 1005 2 3.21868 0.01 0.254
3:15 am 03:15 Windy with Snow Likely 32 undefined 30 -1 93 93 NE 28 44 29.68 1005 1.75 2.816345 N/A
3:35 am 03:35 Windy with Snow Likely 32 undefined 30 -1.1 92 92 NE 28 44 29.68 1005 2 3.21868 0.01 0.254
3:55 am 03:55 Windy with Snow Likely 32 undefined 30 -1.2 92 92 NE 28 44 29.65 1004 2 3.21868 0.02 0.508
4:15 am 04:15 Windy with Snow Likely 32 undefined 30 -1.2 92 92 NNE 29 46 29.62 1003 2 3.21868 N/A
4:35 am 04:35 Windy with Snow Likely 32 -0.2 29 -1.5 91 91 NNE 24 39 29.62 1003 1.75 2.816345 N/A
4:55 am 04:55 Windy with Snow Likely 31 -0.3 29 -1.6 91 91 NNE 28 44 29.62 1003 1.25 2.011675 0.02 0.508
5:15 am 05:15 Windy with Snow Likely 31 -0.3 29 -1.6 91 91 NNE 32 52 29.62 1003 1.25 2.011675 N/A
5:35 am 05:35 Cloudy with Snow 31 -0.3 29 -1.5 92 92 NNE 29 46 29.62 1003 0.75 1.207005 0.02 0.508
5:55 am 05:55 Cloudy with Snow 31 -0.5 29 -1.8 91 91 NNE 29 46 29.62 1003 1 1.60934 0.02 0.508
6:15 am 06:15 Cloudy with Snow 31 -0.6 28 -2 90 90 NNE 26 43 29.68 1005 0.5 0.80467 0.01 0.254
6:35 am 06:35 Cloudy with Heavy Snow 30 -0.9 28 -2.1 92 92 NNE 28 44 29.68 1005 0.5 0.80467 0.02 0.508
6:55 am 06:55 Cloudy with Heavy Snow 30 -1 28 -2.2 92 92 N 35 56 29.68 1005 0.25 0.402335 0.03 0.762
7:15 am 07:15 Cloudy 30 -1 28 -2.4 90 90 NNE 28 44 29.68 1005 N/A 0.01 0.254
7:35 am 07:35 Cloudy 30 -1.3 28 -2.5 92 92 N 28 44 29.68 1005 N/A 0.02 0.508
7:55 am 07:55 Cloudy 29 -1.5 27 -2.6 92 92 NNE 31 50 29.68 1005 N/A 0.03 0.762
8:15 am 08:15 Cloudy 29 -1.7 27 -3 91 91 N 31 50 29.68 1005 N/A 0.01 0.254
8:35 am 08:35 Cloudy 29 -1.7 27 -3 91 91 N 29 46 29.68 1005 N/A 0.01 0.254
8:55 am 08:55 Cloudy 29 -1.8 26 -3.2 90 90 N 35 56 29.68 1005 N/A 0.01 0.254
9:15 am 09:15 Cloudy 28 -2.1 26 -3.5 90 90 N 36 57 29.68 1005 N/A N/A
9:35 am 09:35 Cloudy 28 -2.1 25 -3.7 89 89 N 33 54 29.68 1005 N/A N/A
9:55 am 09:55 Cloudy 28 -2.1 25 -3.7 89 89 N 36 57 29.68 1005 N/A N/A
10:15 am 10:15 Cloudy 28 -2.5 25 -4.1 89 89 N 32 52 29.68 1005 N/A N/A
10:35 am 10:35 Cloudy 27 -2.7 24 -4.5 88 88 N 36 57 29.68 1005 N/A N/A
10:55 am 10:55 Cloudy 27 -2.6 24 -4.2 89 89 N 35 56 29.68 1005 N/A N/A
11:15 am 11:15 Cloudy 28 -2.5 25 -4.1 89 89 N 36 57 29.68 1005 N/A N/A
11:35 am 11:35 Cloudy 28 -2 25 -3.7 88 88 N 33 54 29.68 1005 N/A N/A
11:55 am 11:55 Cloudy 28 -2 25 -3.7 88 88 N 39 63 29.68 1005 N/A N/A
12:15 pm 12:15 Cloudy 28 -2 25 -3.7 88 88 N 36 57 29.68 1005 N/A N/A
12:35 pm 12:35 undefined 28 -2.1 25 -3.8 88 88 N 36 57 29.68 1005 N/A N/A
12:55 pm 12:55 Cloudy 28 -2.5 25 -4 90 90 N 37 59 29.68 1005 N/A N/A
1:15 pm 13:15 Cloudy 28 -2.5 24 -4.2 88 88 N 37 59 29.68 1005 N/A N/A
1:35 pm 13:35 Cloudy 28 -2.5 25 -4.1 89 89 N 37 59 29.68 1005 N/A N/A
1:55 pm 13:55 Cloudy 28 -2.5 25 -4.1 89 89 N 36 57 29.68 1005 N/A N/A
2:15 pm 14:15 Cloudy 28 -2.5 25 -4.1 89 89 N 36 57 29.68 1005 N/A N/A
2:35 pm 14:35 Cloudy 28 -2.5 25 -4.1 89 89 N 33 54 29.71 1006 N/A N/A
2:55 pm 14:55 Cloudy 28 -2.5 25 -4.1 89 89 N 35 56 29.71 1006 N/A N/A
3:15 pm 15:15 Cloudy 28 -2.5 25 -4.1 89 89 N 37 59 29.74 1007 N/A N/A
3:35 pm 15:35 Cloudy 28 -2.5 24 -4.2 88 88 N 33 54 29.74 1007 N/A N/A
3:55 pm 15:55 Cloudy 27 -2.6 24 -4.2 89 89 N 38 61 29.77 1008 N/A N/A
4:15 pm 16:15 Cloudy 28 -2.5 25 -4.1 89 89 N 36 57 29.77 1008 N/A N/A
4:35 pm 16:35 Cloudy 28 -2.5 25 -4.1 89 89 N 36 57 29.8 1009 N/A N/A
4:55 pm 16:55 Cloudy 27 -2.6 24 -4.5 87 87 N 37 59 29.83 1010 N/A N/A
5:15 pm 17:15 undefined 27 -2.6 24 -4.5 87 87 N 37 59 29.83 1010 N/A N/A
5:35 pm 17:35 Cloudy 27 -2.6 24 -4.5 87 87 N 35 56 29.83 1010 N/A N/A
5:55 pm 17:55 Cloudy 27 -2.8 24 -4.7 87 87 N 35 56 29.85 1011 N/A N/A
6:15 pm 18:15 Cloudy 27 -2.9 23 -4.8 87 87 N 33 54 29.88 1012 N/A N/A
6:35 pm 18:35 undefined 27 -3 23 -5 86 86 N 31 50 29.88 1012 N/A N/A
6:55 pm 18:55 undefined 26 -3.1 23 -5.2 86 86 N 30 48 29.91 1013 N/A N/A
7:15 pm 19:15 undefined 26 -3.3 22 -5.5 85 85 N 28 44 29.91 1013 N/A N/A
7:35 pm 19:35 undefined 26 -3.5 22 -5.5 86 86 NNW 25 41 29.94 1014 N/A N/A
7:55 pm 19:55 undefined 26 -3.5 22 -5.7 85 85 N 25 41 29.94 1014 N/A N/A
8:15 pm 20:15 undefined 26 -3.5 22 -5.8 84 84 N 26 43 29.94 1014 N/A N/A
8:35 pm 20:35 undefined 26 -3.5 21 -6 83 83 NNW 26 43 29.94 1014 N/A N/A
8:55 pm 20:55 undefined 26 -3.5 21 -6.2 82 82 N 26 43 29.97 1015 N/A N/A
9:15 pm 21:15 Mostly Cloudy 26 -3.3 21 -6 82 82 NNW 25 41 29.97 1015 N/A N/A
9:35 pm 21:35 Cloudy 26 -3.3 21 -6.1 81 81 NNW 24 39 30 1016 N/A N/A
9:55 pm 21:55 Cloudy 26 -3.3 21 -6.2 81 81 NNW 22 35 30 1016 N/A N/A
10:15 pm 22:15 Cloudy 26 -3.3 21 -6.3 80 80 N 28 44 30 1016 N/A N/A
10:35 pm 22:35 Cloudy 26 -3.6 20 -6.5 81 81 N 20 31 30.06 1018 N/A N/A
10:55 pm 22:55 Cloudy 25 -4 19 -7 80 80 N 32 52 30.06 1018 N/A N/A
11:15 pm 23:15 Cloudy 25 -4 19 -7 80 80 N 20 31 30.06 1018 N/A N/A
11:35 pm 23:35 Cloudy 25 -3.7 19 -7 78 78 N 23 37 30.06 1018 N/A N/A
11:55 pm 23:55 Cloudy 25 -3.7 19 -7.2 77 77 NNW 18 30 30.09 1019 N/A N/A

Powered by AerisWeather